Regional Weather Roundup
Issued by NWS

Home | Current Version | Previous Version | Graphics & Text | Print | Product List | Glossary On
Versions: 1 2 3 4 5 6 7 8 9 10 11 12 13 14 15 16 17 18 19 20 21 22 23 24 25 26 27 28 29 30 31 32 33 34 35 36 37 38 39 40 41 42 43 44 45 46 47 48 49 50
000
ASUS45 KCYS 291410
RWRWY

WYOMING REGIONAL WEATHER ROUNDUP
NATIONAL WEATHER SERVICE CHEYENNE WY
800 AM MDT MON SEP 29 2014

NOTE:  "FAIR" INDICATES FEW OR NO CLOUDS BELOW 12,000 FEET
WITH NO SIGNIFICANT WEATHER AND/OR OBSTRUCTIONS TO VISIBILITY.

WYZ001-291500-
YELLOWSTONE NATIONAL PARK

CITY           SKY/WX    TMP DP  RH WIND       PRES   REMARKS
LK YELLOWSTONE   N/A     37  36  96 CALM      30.07S
W YELLOWSTONE  NOT AVBL

$$
WYZ002>013-054>058-071-098>099-291500-
NORTHERN WYOMING

CITY           SKY/WX    TMP DP  RH WIND       PRES   REMARKS
JACKSON        CLOUDY    43  43 100 CALM      30.02F FOG
CODY           CLOUDY    45  45 100 CALM      30.03S
GREYBULL       CLOUDY    49  47  93 CALM      30.02R
WORLAND        MOCLDY    48  46  93 CALM      30.01F
SHERIDAN       CLOUDY    49  47  93 S3        30.03R FOG
BUFFALO        CLOUDY    47  46  97 SE6       30.04R FOG
GILLETTE       CLOUDY    50  48  93 S7        30.04R
HULETT         CLOUDY    46  45  93 SE10      30.07
NEWCASTLE      PTSUNNY   50  50 100 SW9       30.05

$$
WYZ014>020-022>026-101>103-291500-
CENTRAL WYOMING

CITY           SKY/WX    TMP DP  RH WIND       PRES   REMARKS
BIG PINEY      CLOUDY    43  40  89 S8        30.05S
PINEDALE       CLOUDY    43  43 100 SE9       30.06S
DUBOIS         CLOUDY    39  39 100 SE8       30.04S WCI  34
LANDER         LGT RAIN  47  46  97 VRB3      30.01F
RIVERTON       CLOUDY    46  46 100 CALM      30.03F FOG
CASPER         CLOUDY    45  43  93 NW6       30.04R
DOUGLAS        PTSUNNY   48  47  96 SE5       30.08R

$$
WYZ021-027>030-104>119-291500-
SOUTHERN WYOMING

CITY           SKY/WX    TMP DP  RH WIND       PRES   REMARKS
EVANSTON       MOCLDY    39  38  96 SW3       30.06R
KEMMERER       CLOUDY    37  37 100 CALM      30.07R
FORT BRIDGER   CLOUDY    40  40 100 SE5       30.09R
ROCK SPRINGS   CLOUDY    43  39  86 SE9       30.06S
DIXON          FAIR      43  40  91 CALM      30.09S
RAWLINS        CLEAR     40  39  97 CALM      30.07F
SARATOGA         N/A     45  41  87 S8        30.09S
LARAMIE        MOSUNNY   44  42  93 CALM      30.09S
CHEYENNE       PTSUNNY   48  46  93 NE6       30.08R
TORRINGTON     CLOUDY    52  50  93 NW7       30.04F
PINE BLUFFS    PTSUNNY   50  48  93 N8        30.05S

$$


USA.gov is the U.S. government's official web portal to all federal, state and local government web resources and services.